SL-19 DEB, 23486

Orbit data source: Space-Track

SL-19 DEB, 23486 is space debris in LEO originally from a launch on Mon, 26 Dec 1994 UTC launched from the Tyuratam Missile And Space Complex (TTMTR). Debris objects in space refer to the collection of defunct objects orbiting the Earth. Examples of debris include non-operational satellites, rocket bodies, and fragments generated from explosions, collisions, or faulty payload assembly.

Loading next visibility...
Identifier
23486, 1994-085J
Orbit
LEO
Country
Flag of CISCIS
Related business
Manufacturer
Unknown
Mission
Spacecraft
Bus & Motor
Unknown
Mass
Unknown
Launch date (UTC)
1994-12-26 (31 years ago)
Launch vehicle
Unknown
Launch site
Tyuratam Missile And Space Complex (TTMTR)
Object type
Payload
Rocket body
Debris
Shape & HBR
Unknown shape, 0.1 m
Radar Cross Section
Small (<0.1 m²)

Expand to show TLE details & history
Last TLE update: 8 hours ago

TLE from 8 hours ago
0 SL-19 DEB
1 23486U 94085J   25346.95176557  .00000351  00000-0  11271-1 0  9996
2 23486  64.9157  62.5223 0184539 274.1182 266.2151 11.25704501582174
Epoch: 2025-12-12T22:50Z
TLE epoch observation values (Epoch: 2025-12-12T22:50:32.545Z)
Latitude
1.53007°
Longitude
177.28756°
Altitude
2,046.242 km
Speed
6.875 km/s
True Right ascension
16h 07m 14s
True Declination
1° 31' 20"
Sunlit
Object was in daylight at epoch
Visualization orbit readout
Latitude
Unknown
Longitude
Unknown
Altitude
Unknown
Speed
Unknown
Apparent Right ascension
Unknown
Apparent Declination
Unknown
Sunlit
N/A
Visualization observer readout
Local Sidereal Time
05:23:38
Azimuth
Unknown
Elevation
Unknown
Doppler factor
Unknown
Orbital elements
Apogee altitude
2,185.631 km
Perigee altitude
1,875.288 km
Semi-major axis
8,408.596 km
Eccentricity
0.01845
Inclination
64.9157°
RAAN
62.5223°
Arg. of periapsis
274.1182°
True anomaly
264.10873°
Mean anomaly
266.2151°
Eccentric anomaly
265.16154°
Mean motion
2.81487 °/min
Orbital period
127.89 mins
BSTAR
0.011271
Loading maneuver chart data...
Computing Atmospheric mass density...
Loading historical data...
Loading historical data...
Loading historical data...
Loading historical data...
Loading historical data...
Loading historical data...
Loading historical data...

Documentation

Showing up to 5 results
|